This demonstration page uses our WeatherBlox Daily Observations layout. Learn more.

Left ArrowRight Arrow

39.92423, -83.80882

Hourly Observations for February 5, 2016

Temp ( °F °C ) Dew Point ( °F °C ) Humidity (%) Winds ( mph kmh ) Pressure ( in mb ) Visibility ( mi km ) Precip ( " mm )
12:56 am 00:56 Clear 22 -5.5 19 -7.2 88 88 W 5 7 30.37 1028 10 16 N/A
1:56 am 01:56 Clear 21 -6.1 18 -7.7 89 89 W 6 9 30.37 1029 10 16 N/A
2:56 am 02:56 Clear 21 -6.1 18 -7.7 89 89 W 6 9 30.38 1029 10 16 N/A
3:56 am 03:56 Clear 21 -6.1 18 -7.7 89 89 WSW 6 9 30.38 1029 10 16 N/A
4:56 am 04:56 Clear 21 -6.1 18 -7.7 89 89 WSW 6 9 30.39 1029 10 16 N/A
5:56 am 05:56 Clear 20 -6.6 18 -7.7 92 92 WSW 3 6 30.40 1030 10 16 N/A
6:56 am 06:56 Clear 19 -7.2 18 -7.7 96 96 N N/A 30.42 1030 10 16 N/A
7:56 am 07:56 Sunny 19 -7.2 18 -7.7 96 96 SSW 5 7 30.44 1031 10 16 N/A
8:56 am 08:56 Sunny 24 -4.4 21 -6.1 88 88 SSW 7 11 30.45 1031 10 16 N/A
9:56 am 09:56 Sunny 28 -2.2 23 -5 81 81 SSW 5 7 30.46 1032 10 16 N/A
10:56 am 10:56 Sunny 32 undefined 22 -5.5 67 67 S 6 9 30.46 1032 10 16 N/A
11:56 am 11:56 Sunny 35 1.6 21 -6.1 57 57 S 7 11 30.45 1031 10 16 N/A
12:56 pm 12:56 Sunny 37 2.7 20 -6.6 51 51 S 7 11 30.41 1030 10 16 N/A
1:56 pm 13:56 Sunny 38 3.3 20 -6.6 49 49 VRB 7 11 30.38 1029 10 16 N/A
2:56 pm 14:56 Sunny 39 3.8 20 -6.6 47 47 S 10 17 30.37 1029 10 16 N/A
3:56 pm 15:56 Sunny 39 3.8 20 -6.6 47 47 S 9 15 30.38 1029 10 16 N/A
4:56 pm 16:56 Sunny 38 3.3 21 -6.1 51 51 S 8 13 30.38 1029 10 16 N/A
5:56 pm 17:56 Mostly Cloudy 36 2.2 23 -5 59 59 SSE 7 11 30.38 1029 10 16 N/A
6:56 pm 18:56 Mostly Cloudy 35 1.6 23 -5 62 62 SSE 6 9 30.39 1029 10 16 N/A
7:56 pm 19:56 Cloudy 35 1.6 23 -5 62 62 SSE 7 11 30.37 1029 10 16 N/A
8:56 pm 20:56 Cloudy 34 1.1 24 -4.4 67 67 SSE 8 13 30.36 1028 10 16 N/A
9:56 pm 21:56 Mostly Cloudy 34 1.1 26 -3.3 73 73 W 8 13 30.37 1028 10 16 N/A
10:56 pm 22:56 Clear 29 -1.6 26 -3.3 88 88 NW 6 9 30.36 1028 10 16 N/A
11:56 pm 23:56 Clear 27 -2.7 25 -3.8 92 92 WNW 3 6 30.35 1028 10 16 N/A

Powered by AerisWeather